Location: Asheville, NC
(35.6000°N, 82.5500°W)
Time: 07:42:01
(UTC-04:00)

Envisat - Pass Details

Date: 09 February 2018
Orbit: 764 x 766 km, 98.2° (Epoch: 22 May)

Event Time Altitude Azimuth Distance (km) Brightness Sun altitude
Exits shadow 19:40:51 29° 127° (SE) 1,363 3.9 -19.7°
Maximum altitude 19:42:59 47° 73° (ENE) 1,008 3.2 -20.1°
Drops below altitude 10° 19:47:50 10° 0° (N) 2,304 5.4 -21.1°
Sets 19:50:13 0° 355° (N) 3,234 6.3 -21.6°
